TimeCST,TemperatureF,Dew PointF,Humidity,Sea Level PressureIn,VisibilityMPH,Wind Direction,Wind SpeedMPH,Gust SpeedMPH,PrecipitationIn,Events,Conditions,WindDirDegrees,DateUTC
12:52 AM,50.0,34.0,54,29.85,10.0,NW,16.1,-,N/A,,Clear,310,2013-12-14 06:52:00
1:52 AM,46.9,28.9,50,29.87,10.0,NW,12.7,-,N/A,,Clear,310,2013-12-14 07:52:00
2:52 AM,44.1,27.0,51,29.90,10.0,NW,17.3,-,N/A,,Clear,320,2013-12-14 08:52:00
3:52 AM,42.1,27.0,55,29.93,10.0,NW,16.1,-,N/A,,Clear,320,2013-12-14 09:52:00
4:52 AM,39.9,27.0,60,29.96,10.0,NNW,20.7,28.8,N/A,,Clear,330,2013-12-14 10:52:00
5:52 AM,39.9,26.1,58,30.00,10.0,NNW,16.1,-,N/A,,Mostly Cloudy,340,2013-12-14 11:52:00
6:30 AM,37.4,26.6,65,30.04,10.0,North,16.1,-,N/A,,Scattered Clouds,350,2013-12-14 12:30:00
6:52 AM,36.0,26.1,67,30.06,10.0,North,18.4,24.2,N/A,,Clear,350,2013-12-14 12:52:00
7:52 AM,35.1,25.0,67,30.12,10.0,NNW,18.4,-,N/A,,Partly Cloudy,340,2013-12-14 13:52:00
8:10 AM,35.6,24.8,65,30.13,10.0,NNW,18.4,27.6,N/A,,Mostly Cloudy,340,2013-12-14 14:10:00
8:52 AM,35.1,25.0,67,30.17,10.0,North,17.3,-,N/A,,Unknown,350,2013-12-14 14:52:00
9:04 AM,35.6,24.8,65,30.18,10.0,North,16.1,-,N/A,,Scattered Clouds,350,2013-12-14 15:04:00
9:52 AM,37.0,25.0,62,30.21,10.0,North,24.2,32.2,N/A,,Clear,350,2013-12-14 15:52:00
10:52 AM,39.0,24.1,55,30.24,10.0,North,21.9,31.1,N/A,,Clear,350,2013-12-14 16:52:00
11:52 AM,43.0,25.0,49,30.24,10.0,North,18.4,-,N/A,,Clear,350,2013-12-14 17:52:00
12:52 PM,46.0,25.0,44,30.24,10.0,North,19.6,27.6,N/A,,Clear,350,2013-12-14 18:52:00
1:52 PM,48.9,25.0,39,30.23,10.0,NNW,19.6,27.6,N/A,,Clear,340,2013-12-14 19:52:00
2:52 PM,50.0,23.0,35,30.23,10.0,North,20.7,26.5,N/A,,Clear,350,2013-12-14 20:52:00
3:52 PM,50.0,21.9,33,30.25,10.0,NNW,19.6,26.5,N/A,,Clear,340,2013-12-14 21:52:00
4:52 PM,48.0,21.9,36,30.27,10.0,North,17.3,-,N/A,,Clear,350,2013-12-14 22:52:00
5:52 PM,43.0,24.1,47,30.28,10.0,North,6.9,-,N/A,,Clear,360,2013-12-14 23:52:00
6:52 PM,42.1,24.1,49,30.31,10.0,Calm,Calm,-,N/A,,Clear,0,2013-12-15 00:52:00
7:52 PM,39.9,24.1,53,30.33,10.0,Calm,Calm,-,N/A,,Clear,0,2013-12-15 01:52:00
8:52 PM,33.1,23.0,66,30.36,10.0,SSE,4.6,-,N/A,,Clear,160,2013-12-15 02:52:00
9:52 PM,34.0,24.1,67,30.37,10.0,Calm,Calm,-,N/A,,Clear,0,2013-12-15 03:52:00
10:52 PM,30.0,23.0,75,30.38,10.0,SSW,5.8,-,N/A,,Clear,200,2013-12-15 04:52:00
11:52 PM,28.9,21.9,75,30.38,10.0,SSW,5.8,-,N/A,,Clear,200,2013-12-15 05:52:00